Terug naar catalogus

UMBRA-07

ActiefWetenschapSSO
NORAD 58297·PAYLOAD·🇺🇸 United States

Gelanceerd Nov 11, 2023 vanaf Vandenberg Space Force Base

Loading…

Volgende Passages (komende 24 uur)

TLE

VersSource: Space-Track

Epoch: Sep 14, 2026, 13:47 UTC

1 58297U 23174AT  26257.57459276  .00007547  00000-0  46155-3 0  9992
2 58297  97.3706 310.0027 0004496 121.0643 239.1029 15.10506338156907

Volg UMBRA-07 in realtime met AllMySat

Download on the App Store